SCOUT X-4 DEB

基本信息
目录编号:
2986
目录名称:
SCOUT X-4 DEB
国际标识:
1964-026E
轨道中心:
EARTH
物体状态:
在轨
发射日期:
1964-06-04 UTC
轨道信息
数据来源: 国际轨道数据
星历时间: 2026-07-13T19:40:49+0800
半长轴: 7249.378km
偏心率: 0.0047457
轨道倾角: 90.476°
近地点辐角: 140.182°
升交点赤经: 193.769°
平近点角: 220.286°
近地点: 836.837km
远地点: 905.645km
周期: 102.379分钟
每日圈数: 14.065388
详细信息
发射场:
AFWTR
轨道高度:
LEO
数据来源:
AOE Integration Group
参考系:
TEME
时间系统:
UTC
历元类型:
SGP4
2D轨道图
3D轨道图
轨道高度分析图
轨道倾角分析图
轨道综合分析图
查看轨道综合分析图